Regional Weather Roundup
Issued by NWS

Home | Current Version | Previous Version | Text Only | Print | Product List | Glossary Off
Versions: 1 2 3 4 5 6 7 8 9 10 11 12 13 14 15 16 17 18 19 20 21 22 23 24 25 26 27 28 29 30 31 32 33 34 35 36 37 38 39 40 41 42 43 44 45 46 47 48 49 50

000
ASUS43 KMPX 260110
RWRMN
WEATHER ROUNDUP FOR MINNESOTA
NATIONAL WEATHER SERVICE TWIN CITIES/CHANHASSEN MN
800 PM CDT FRI JUL 25 2014


NOTE: "FAIR" INDICATES FEW OR NO CLOUDS BELOW 12,000 FEET WITH NO
SIGNIFICANT WEATHER AND/OR OBSTRUCTIONS TO VISIBILITY. N/A MEANS
CURRENT SKY AND/OR WEATHER CONDITIONS ARE NOT AVAILABLE.

MNZ060>063-068>070-260200-
   Twin Cities Metro

CITY           SKY/WX    TMP DP  RH WIND       PRES   REMARKS
TWIN CITIES    CLOUDY    79  68  69 SW5       29.76F
ST PAUL        CLOUDY    77  70  79 CALM      29.76F
CRYSTAL        CLOUDY    79  68  69 S6        29.74F
BLAINE         CLOUDY    79  70  73 S6          N/A
LAKEVILLE      CLOUDY    75  70  83 CALM      29.77S
EDEN PRAIRIE   CLOUDY    77  69  76 S3        29.75F
SOUTH ST PAUL  CLOUDY    78  68  70 SW3       29.76S
LAKE ELMO      CLOUDY    77  72  83 CALM      29.78F
$$
MNZ001>005-007-008-013>017-022>024-027-028-260200-
   Northwest Minnesota

CITY           SKY/WX    TMP DP  RH WIND       PRES   REMARKS
BEMIDJI        PTCLDY    75  67  77 SW6       29.75S
HALLOCK        SUNNY     77  55  47 W9        29.72R
ROSEAU         CLEAR     75  55  50 W7        29.72R
WARROAD        MOCLDY    75  64  69 W10       29.71S
THIEF RVR FALL PTCLDY    73  54  49 W7        29.75R
CROOKSTON      CLEAR     75  63  64 NW5       29.75R
FOSSTON        PTCLDY    75  61  60 W10       29.76R
DETROIT LAKES  PTCLDY    77  68  73 NW8       29.78S
MOORHEAD       CLEAR     75  61  60 NW6       29.77R
PARK RAPIDS    MOCLDY    76  68  76 W6        29.76R
$$
MNZ006-009>011-018-025>026-260200-
   North Central Minnesota

CITY           SKY/WX    TMP DP  RH WIND       PRES   REMARKS
BAUDETTE       PTCLDY    74  67  78 S6        29.70F
FLAG ISLAND    PTCLDY    73  68  83 S5        29.68S
INTL FALLS     PTCLDY    71  65  81 VRB3      29.71F
WASKISH        CLOUDY    75  68  78 CALM      29.73R
BIG FORK       MOCLDY    73  66  78 SE3       29.75S
LONGVILLE      CLOUDY    73  70  88 CALM      29.75F
GRAND RAPIDS   CLOUDY    73  68  83 CALM      29.76S
CRANE LAKE     MOCLDY    70  64  83 CALM      29.76S
ORR            CLEAR     70  63  78 SE3       29.73S
COOK           CLEAR     70  64  83 S3        29.76S
$$
MNZ012-019>021-037-260200-
   Northeast Minnesota

CITY           SKY/WX    TMP DP  RH WIND       PRES   REMARKS
DULUTH         CLOUDY    69  64  84 SE8       29.77F
ELY            CLOUDY    70  63  78 CALM      29.77S
HIBBING        CLOUDY    72  65  78 S5        29.77S
EVELETH        CLOUDY    72  66  83 CALM      29.78S
DULUTH HARBOR  MOCLDY    63  61  94 CALM      29.76F
TWO HARBORS    CLOUDY    66  63  88 SW3       29.76F
SILVER BAY     MOCLDY    66  66 100 CALM      29.76S
GRAND MARAIS     N/A     55  53  93 SW5       29.76F
G MARAIS ARPRT MOCLDY    63  57  82 SW7       29.80F
$$
MNZ029>031-032-039>041-046>048-054>057-064-260200-
   West Central Minnesota

CITY           SKY/WX    TMP DP  RH WIND       PRES   REMARKS
FERGUS FALLS   PTCLDY    75  66  73 W3        29.76R
WHEATON        PTCLDY    75  68  78 W5        29.79S
MORRIS         CLEAR     75  70  83 NW3       29.77S
ALEXANDRIA     CLOUDY    75  68  78 W6        29.79S
ELBOW LAKE     CLOUDY    73  69  86 W5        29.78R
WADENA         PTCLDY    73  66  78 CALM      29.77R
GLENWOOD       CLEAR     75  68  78 W5        29.79R
APPLETON       CLEAR     77  70  78 CALM      29.77R
BENSON         MOCLDY    75  70  83 N5        29.77R
ORTONVILLE     PTCLDY    75  66  73 NW6       29.78S
MADISON        CLEAR     79  70  73 NW8       29.78R
WILLMAR        FAIR      79  72  78 CALM      29.77S
$$
MNZ033>034-036-042>043-049>051-058-059-260200-
   Central Minnesota

CITY           SKY/WX    TMP DP  RH WIND       PRES   REMARKS
ST CLOUD       CLOUDY    80  70  71 S5        29.75F
SAUK CENTRE    CLOUDY    75  68  77 W3        29.78R
PAYNESVILLE    HVY RAIN  74  69  83 CALM      29.77S
AITKIN         CLOUDY    77  70  78 S7        29.74F
PINE RIVER     CLOUDY    75  68  78 CALM      29.79S
BRAINERD       CLOUDY    73  68  84 S5        29.76F
STAPLES        MOCLDY    73  66  78 S3        29.76S
LONG PRAIRIE   CLOUDY    72  68  88 CALM      29.78S
LITTLE FALLS   CLOUDY    73  66  78 CALM      29.76S
LITCHFIELD     MOCLDY    79  73  83 CALM      29.77R
BUFFALO        CLOUDY    78  69  74 CALM      29.76F
MAPLE LAKE     CLOUDY    78  73  83 CALM      29.76S
$$
MNZ037-044-045-052-053-260200-
   East Central Minnesota

CITY           SKY/WX    TMP DP  RH WIND       PRES   REMARKS
PRINCETON      MOCLDY    77  70  78 CALM      29.76S
MORA           PTCLDY    70  66  88 SE3       29.78F
CAMBRIDGE      PTCLDY    77  66  69 E3        29.74F
RUSH CITY      CLOUDY    73  68  84 CALM      29.77F
MOOSE LAKE     CLOUDY    72  66  83 S6        29.75S
HINCKLEY       CLOUDY    72  68  88 S6        29.76F
CLOQUET        CLOUDY    68  63  83 E5        29.77F
MCGREGOR       CLOUDY    75  68  78 S7        29.76S
$$
MNZ071>073-080-081-089-090-097-098-260200-
   Southwest Minnesota

CITY           SKY/WX    TMP DP  RH WIND       PRES   REMARKS
MONTEVIDEO     CLOUDY    79  72  78 N6        29.78R
GRANITE FALLS  CLOUDY    78  71  79 NW5       29.78R
CANBY          CLOUDY    77  70  77 N5        29.79S
MARSHALL       CLOUDY    79  72  78 N6          N/A
REDWOOD FALLS  CLOUDY    82  72  71 N6        29.75R
OLIVIA         CLOUDY    79  72  78 NW7       29.76R
PIPESTONE      CLOUDY    81  70  69 CALM      29.80R
WINDOM         CLEAR     81  72  74 S3        29.78R
WORTHINGTON    CLEAR     79  72  78 S5        29.80S
JACKSON        CLEAR     79  68  69 S6        29.79S
TRACY          CLOUDY    80  72  77 N5        29.78R
SLAYTON        MOCLDY    80  71  75 CALM      29.80R
$$
MNZ065>067-074>077-082>085-091>093-260200-
   South Central Minnesota

CITY           SKY/WX    TMP DP  RH WIND       PRES   REMARKS
MANKATO        MOCLDY    77  66  69 S7        29.77S
NEW ULM        CLEAR     77  72  83 S7        29.76R
ST JAMES       CLEAR     79  70  73 SE6       29.77S
FAIRMONT       CLOUDY    77  63  61 S7        29.79R
GLENCOE        CLEAR     78  68  70 S3        29.76R
FARIBAULT      CLOUDY    79  66  65 CALM      29.79S
OWATONNA       PTCLDY    75  68  78 S3        29.79S
WASECA         CLOUDY    73  64  73 S5        29.80S
ALBERT LEA     CLOUDY    75  68  78 S3        29.80R
$$
MNZ078>079-086>088-094>096-260200-
   Southeast Minnesota

CITY           SKY/WX    TMP DP  RH WIND       PRES   REMARKS
ROCHESTER      CLOUDY    75  68  78 S9        29.82S
RED WING       CLOUDY    77  70  78 SE7       29.76R
STANTON        CLOUDY    77  70  78 SW5       29.76S
DODGE CENTER   CLOUDY    75  70  83 SW3       29.81R
WINONA         CLOUDY    73  64  73 SE12      29.81S
AUSTIN         CLOUDY    75  68  78 S8        29.80S
PRESTON        CLOUDY    73  69  89 SE12G18   29.82F
$$
ABBREVIATIONS USED IN REMARKS
   TC - TEMPERATURES IN CELSIUS
  WCI - WIND CHILL INDEX
   HX - HEAT INDEX
  VSB - VISIBILITY
$$



USA.gov is the U.S. government's official web portal to all federal, state and local government web resources and services.